McAlester, OK

6:36 AM CST on November 20, 2019 (GMT -0600)
McAlester Regional

Weather History for KMLC - August, 2019

Change the Weather History Date:

Thursday, August 29, 2019

  Actual Average Record
Temperature  
Mean Temperature 82 °F -  
Max Temperature 93 °F 90 °F 107 °F (1984)
Min Temperature 73 °F 68 °F 53 °F (1986)
Cooling Degree Days 17    
Growing Degree Days 32 (Base 50)    
Moisture  
Dew Point 71 °F    
Average Humidity 69    
Maximum Humidity 87    
Minimum Humidity 52    
Precipitation  
Precipitation 0.00 in - - ()
Sea Level Pressure  
Sea Level Pressure 30.01 in    
Wind  
Wind Speed 5 mph (SSE)    
Max Wind Speed 10 mph    
Max Gust Speed -    
Visibility 10 miles    
Events      
Averages and records for this station are not official NWS values.
T = Trace of Precipitation, MM = Missing Value Source: NWS Daily Summary

Daily Weather History Graph

Daily Weather History Graph

Search for Another Location

Airport or City:

Astronomy

Aug. 29, 2019 Rise Set
Actual Time 6:53 AM CDT 7:53 PM CDT
Civil Twilight 6:27 AM CDT 8:19 PM CDT
Nautical Twilight 5:56 AM CDT 8:50 PM CDT
Astronomical Twilight 5:24 AM CDT 9:22 PM CDT
Moon 5:45 AM CDT (8/29) 7:48 PM CDT (8/29)
Length of Visible Light 13h 52m
Length of Day
13h 00m
Waning Crescent, 1% of the Moon is Illuminated
Aug 29
Waning Crescent
Aug 30
New
Sep 5
First Quarter
Sep 13
Full
Sep 21
Last Quarter

Hourly Weather History & Observations

Time (CDT) Temp. Heat Index Dew Point Humidity Pressure Visibility Wind Dir Wind Speed Gust Speed Precip Events Conditions
12:53 AM 75.9 °F - 72.0 °F 87% 30.02 in 10.0 mi SE 3.5 mph - N/A   Scattered Clouds
1:53 AM 77.0 °F - 71.1 °F 82% 30.03 in 10.0 mi SSE 4.6 mph - N/A   Mostly Cloudy
2:53 AM 77.0 °F - 70.0 °F 79% 30.03 in 10.0 mi South 4.6 mph - N/A   Scattered Clouds
3:53 AM 75.9 °F - 69.1 °F 79% 30.02 in 10.0 mi Variable 3.5 mph - N/A   Clear
4:53 AM 75.0 °F - 68.0 °F 79% 30.02 in 10.0 mi SE 4.6 mph - N/A   Clear
5:53 AM 73.9 °F - 68.0 °F 82% 30.02 in 10.0 mi SE 5.8 mph - N/A   Scattered Clouds
6:53 AM 73.9 °F - 66.9 °F 79% 30.04 in 10.0 mi SE 3.5 mph - N/A   Clear
7:53 AM 75.0 °F - 68.0 °F 79% 30.04 in 10.0 mi Calm Calm - N/A   Clear
8:53 AM 79.0 °F - 69.1 °F 72% 30.05 in 10.0 mi Variable 4.6 mph - N/A   Clear
9:53 AM 82.0 °F 85.9 °F 70.0 °F 67% 30.04 in 10.0 mi Variable 5.8 mph - N/A   Clear
10:53 AM 84.0 °F 89.0 °F 71.1 °F 65% 30.04 in 10.0 mi South 9.2 mph - N/A   Clear
11:53 AM 86.0 °F 92.2 °F 72.0 °F 63% 30.05 in 10.0 mi South 8.1 mph - N/A   Partly Cloudy
12:53 PM 88.0 °F 94.7 °F 72.0 °F 59% 30.03 in 10.0 mi South 8.1 mph - N/A   Scattered Clouds
1:53 PM 90.0 °F 96.9 °F 72.0 °F 55% 30.01 in 10.0 mi SW 10.4 mph - N/A   Scattered Clouds
2:53 PM 91.0 °F 98.2 °F 72.0 °F 53% 29.99 in 10.0 mi SSW 6.9 mph - N/A   Clear
3:53 PM 91.9 °F 99.5 °F 72.0 °F 52% 29.96 in 10.0 mi Variable 4.6 mph - N/A   Partly Cloudy
4:53 PM 91.0 °F 98.2 °F 72.0 °F 53% 29.96 in 10.0 mi SSW 5.8 mph - N/A   Clear
5:53 PM 91.0 °F 99.3 °F 73.0 °F 55% 29.95 in 10.0 mi South 4.6 mph - N/A   Clear
7:53 PM 84.0 °F 89.6 °F 72.0 °F 67% 29.94 in 10.0 mi SE 3.5 mph - N/A   Scattered Clouds
8:53 PM 82.0 °F 86.7 °F 72.0 °F 71% 29.95 in 10.0 mi Variable 5.8 mph - N/A   Clear
9:53 PM 82.0 °F 86.3 °F 71.1 °F 69% 29.98 in 10.0 mi SE 4.6 mph - N/A   Clear
10:53 PM 80.1 °F 83.6 °F 71.1 °F 74% 29.99 in 10.0 mi ESE 5.8 mph - N/A   Clear
11:53 PM 80.1 °F 83.6 °F 71.1 °F 74% 29.98 in 10.0 mi SE 6.9 mph - N/A   Clear